User: anonymous   Login
Location: Sperry Observatory
(40.6664°N, 74.3236°W)
Time: 18:05:29
(UTC-04:00)
Language:

UOSAT-12 - Orbit

View from above orbital plane
View from above orbital plane
View from above satellite
View from above satellite

Ground track
Ground track

The orbit data is extracted from the following two-line orbital elements,

1 25693U 99021A   15148.00354957  .00000097  00000-0  31513-4 0  9991
2 25693 064.5564 280.4155 0043232 243.1582 236.5965 14.80447828868959
Epoch (UTC): 28 May 2015 00:05:06
Eccentricity: 0.0043232
inclination: 64.5564°
perigee height: 597 km
apogee height: 658 km
right ascension of ascending node: 280.4155°
argument of perigee: 243.1582°
revolutions per day: 14.80447828
mean anomaly at epoch: 236.5965°
orbit number at epoch: 86895

The dashed part of the orbit path shows where the satellite is in the earth's shadow,  

DLR